Regional Weather Roundup
Issued by NWS

Home | Current Version | Previous Version | Graphics & Text | Print | Product List | Glossary On
Versions: 1 2 3 4 5 6 7 8 9 10 11 12 13 14 15 16 17 18 19 20 21 22 23 24 25 26 27 28 29 30 31 32 33 34 35 36 37 38 39 40 41 42 43 44 45 46 47 48 49 50
000
ASUS45 KABQ 260301
RWRNM
WEATHER ROUNDUP FOR NEW MEXICO
NATIONAL WEATHER SERVICE ALBUQUERQUE NM
900 PM MDT FRI JUL 25 2014

NOTE: "FAIR" MEANS FEW OR NO CLOUDS BELOW 12,000 FEET AGL WITH NO
       SIGNIFICANT WEATHER OR OBSTRUCTIONS TO VISION.

      THIS PRODUCT IS RELEASED AS TWO VERSIONS.  ONE VERSION NEAR
      THE TOP OF THE HOUR CONTAINING PRELIMINARY DATA FROM ALBUQUERQUE
      AND OTHER STATIONS.  A FINAL VERSION WITH ADDITIONAL DATA IS
      ISSUED ABOUT 10 MINUTES AFTER THE HOUR.

NMZ501-503-504-510>518-260400-
NORTHWEST PLATEAU/NORTHCENTRAL MOUNTAINS

CITY           SKY/WX    TMP DP  RH WIND       PRES   REMARKS
FARMINGTON     CLEAR     87  40  19 W8        30.09R
LOS ALAMOS     CLEAR     78  44  29 W7        30.25R
SANTA FE       CLEAR     82  46  28 N5        30.16R
TAOS           PTCLDY    73  46  38 N8        30.24R
ANGEL FIRE     MOCLDY    69  47  46 N5        30.37R

$$
NMZ402-403-502-505>509-260400-
WESTCENTRAL MOUNTAINS/SOUTHWEST MOUNTAINS

CITY           SKY/WX    TMP DP  RH WIND       PRES   REMARKS
GALLUP         PTCLDY    80  35  19 CALM      30.19R
GRANTS         MOCLDY    77  41  28 CALM      30.21R

$$
NMZ407-409-411-412-260400-
SOUTHERN DESERTS

CITY           SKY/WX    TMP DP  RH WIND       PRES   REMARKS
LORDSBURG      FAIR      82  54  36 W15G25    30.03R
DEMING         CLEAR     89  44  20 SW5       30.02R
LAS CRUCES     CLEAR     90  39  17 S6        30.04R
HOLLOMAN AFB   CLEAR     91  38  16 N6        29.99R
T OR C         CLEAR     90  39  16 S6        30.05R

$$
NMZ519>523-260400-
CENTRAL VALLEYS/CENTRAL HIGHLANDS

CITY           SKY/WX    TMP DP  RH WIND       PRES   REMARKS
ALBUQUERQUE    PTCLDY    90  43  19 S7        30.08R
DOUBLE EAGLE   PTCLDY    86  41  20 SW6       30.11
CLINES CORNERS CLEAR     74  34  23 SW12      30.23R
BELEN          FAIR      83  46  27 S3        30.07R
SOCORRO        FAIR      90  36  14 SW8       30.05R

$$
NMZ524>526-539-540-260400-
SOUTHCENTRAL MOUNTAINS

CITY           SKY/WX    TMP DP  RH WIND       PRES   REMARKS
RUIDOSO        NOT AVBL

$$
NMZ527>531-260400-
NORTHEAST HIGHLANDS/NORTHEAST PLAINS

CITY           SKY/WX    TMP DP  RH WIND       PRES   REMARKS
LAS VEGAS      CLEAR     75  44  33 SW7       30.20R
RATON          CLOUDY    75  52  44 NE12      30.18R
CLAYTON        PTCLDY    83  44  25 S10       30.02R

$$
NMZ532>537-260400-
EASTCENTRAL PLAINS

CITY           SKY/WX    TMP DP  RH WIND       PRES   REMARKS
TUCUMCARI      CLEAR     91  48  22 S17       29.95R
CANNON AFB     CLEAR     80  53  40 S9        30.04R
CLOVIS AIRPORT NOT AVBL

$$
NMZ028-029-538-260400-
SOUTHEAST PLAINS

CITY           SKY/WX    TMP DP  RH WIND       PRES   REMARKS
ROSWELL        CLEAR     88  46  23 S8        29.98R
ARTESIA        CLEAR     88  46  23 S9        29.98R
CARLSBAD       CLEAR     91  36  14 SE12      29.97R
HOBBS          CLEAR     86  41  20 SE8       30.04R


$$


USA.gov is the U.S. government's official web portal to all federal, state and local government web resources and services.